Tracking 35331 objects as of 15-Sep-2026
HD Live streaming from Space Station
objects crossing your sky now

SWAMPSAT-2


SWAMPSAT-2 is no longer on orbit
SWAMPSAT-2 is classified as:


NORAD ID: 45115
Int'l Code: 2019-071E
Launch date: November 2, 2019
Source: United States (US)
Launch site: WALLOPS ISLAND (WLPIS)
Decay date: 2021-10-19

Uplink (MHz):
Downlink (MHz): 145.875/436.600*/2432.000
Beacon (MHz):
Mode: 9k6 GMSK/3M QPSK
Call sign: WK2XID
Status: Reentered

Your satellite tracking list
Your tracking list is empty




NASA's NSSDC Master Catalog

Two Line Element Set (TLE):
1 45115U 19071E   21292.60330652  .19123998  12391-4  19698-2 0  9992
2 45115  51.6083 106.0375 0009565 299.5371  60.4700 16.36852634 96897
Source of the keplerian elements: AFSPC